Time,TemperatureF,DewpointF,PressureIn,WindDirection,WindDirectionDegrees,WindSpeedMPH,WindSpeedGustMPH,Humidity,HourlyPrecipIn,Conditions,Clouds,dailyrainin,SoftwareType,DateUTC
2013-02-22 00:00:00,31.6,30.6,30.07,NNW,336,0.0,3.0,96,0.00,,---,0.14,VWS V14.01,2013-02-22 07:00:00,
2013-02-22 00:10:00,31.8,30.8,30.08,NNW,336,0.0,0.0,96,0.00,,---,0.00,VWS V14.01,2013-02-22 07:10:00,
2013-02-22 00:20:00,31.8,30.5,30.08,NNW,336,0.0,0.0,95,0.00,,---,0.00,VWS V14.01,2013-02-22 07:20:00,
2013-02-22 00:30:00,31.9,30.9,30.09,NNW,336,2.0,3.0,96,0.00,,---,0.00,VWS V14.01,2013-02-22 07:30:00,
2013-02-22 00:40:00,32.3,31.3,30.09,NNW,336,3.0,5.0,96,0.00,,---,0.00,VWS V14.01,2013-02-22 07:40:00,
2013-02-22 00:50:00,32.5,31.5,30.09,NNW,336,4.0,5.0,96,0.00,,---,0.00,VWS V14.01,2013-02-22 07:50:00,
2013-02-22 01:00:00,32.6,31.6,30.10,NNW,336,0.0,4.0,96,0.00,,---,0.00,VWS V14.01,2013-02-22 08:00:00,
2013-02-22 01:10:00,32.6,31.6,30.10,NNW,336,0.0,1.0,96,0.00,,---,0.00,VWS V14.01,2013-02-22 08:10:00,
2013-02-22 01:20:00,32.6,31.6,30.09,NNW,336,0.0,0.0,96,0.00,,---,0.00,VWS V14.01,2013-02-22 08:20:00,
2013-02-22 01:30:00,32.3,31.0,30.09,NNW,336,0.0,0.0,95,0.00,,---,0.00,VWS V14.01,2013-02-22 08:30:00,
2013-02-22 01:40:00,31.9,30.6,30.08,NNW,336,0.0,0.0,95,0.00,,---,0.00,VWS V14.01,2013-02-22 08:40:00,
2013-02-22 01:50:00,31.5,30.2,30.09,NNW,336,2.0,3.0,95,0.00,,---,0.00,VWS V14.01,2013-02-22 08:50:00,
2013-02-22 02:00:00,31.2,29.9,30.09,NNW,336,0.0,2.0,95,0.00,,---,0.00,VWS V14.01,2013-02-22 09:00:00,
2013-02-22 02:10:00,30.9,29.6,30.09,NNW,336,1.0,3.0,95,0.00,,---,0.00,VWS V14.01,2013-02-22 09:10:00,
2013-02-22 02:20:00,30.8,29.5,30.08,NNW,336,0.0,2.0,95,0.00,,---,0.00,VWS V14.01,2013-02-22 09:20:00,
2013-02-22 02:30:00,30.8,29.5,30.08,NNW,336,0.0,3.0,95,0.00,,---,0.00,VWS V14.01,2013-02-22 09:30:00,
2013-02-22 02:40:00,30.5,29.2,30.08,NNW,336,0.0,0.0,95,0.00,,---,0.00,VWS V14.01,2013-02-22 09:40:00,
2013-02-22 02:50:00,30.4,29.1,30.08,NNW,336,1.0,1.0,95,0.00,,---,0.00,VWS V14.01,2013-02-22 09:50:00,
2013-02-22 03:00:00,30.3,29.0,30.08,NNW,336,2.0,3.0,95,0.00,,---,0.00,VWS V14.01,2013-02-22 10:00:00,
2013-02-22 03:10:00,30.4,29.4,30.09,NNW,336,5.0,6.0,96,0.00,,---,0.00,VWS V14.01,2013-02-22 10:10:00,
2013-02-22 03:20:00,30.5,29.5,30.09,NNW,336,4.0,7.0,96,0.00,,---,0.00,VWS V14.01,2013-02-22 10:20:00,
2013-02-22 03:30:00,30.3,29.0,30.09,NNW,336,5.0,10.0,95,0.00,,---,0.00,VWS V14.01,2013-02-22 10:30:00,
2013-02-22 03:40:00,30.0,28.5,30.09,NNW,336,3.0,7.0,94,0.00,,---,0.00,VWS V14.01,2013-02-22 10:40:00,
2013-02-22 03:50:00,29.6,27.8,30.09,NNW,336,4.0,6.0,93,0.00,,---,0.00,VWS V14.01,2013-02-22 10:50:00,
2013-02-22 04:00:00,29.2,27.4,30.09,NNW,336,2.0,4.0,93,0.00,,---,0.00,VWS V14.01,2013-02-22 11:00:00,
2013-02-22 04:10:00,28.9,27.4,30.09,NNW,336,0.0,3.0,94,0.00,,---,0.00,VWS V14.01,2013-02-22 11:10:00,
2013-02-22 04:20:00,28.6,26.8,30.09,NNW,336,0.0,0.0,93,0.00,,---,0.00,VWS V14.01,2013-02-22 11:20:00,
2013-02-22 04:30:00,28.2,26.4,30.10,NNW,336,1.0,2.0,93,0.00,,---,0.00,VWS V14.01,2013-02-22 11:30:00,
2013-02-22 04:40:00,27.8,26.0,30.10,NNW,336,0.0,2.0,93,0.00,,---,0.00,VWS V14.01,2013-02-22 11:40:00,
2013-02-22 04:50:00,27.6,25.8,30.10,NNW,336,0.0,3.0,93,0.00,,---,0.00,VWS V14.01,2013-02-22 11:50:00,
2013-02-22 05:00:00,27.4,25.6,30.11,NNW,336,1.0,2.0,93,0.00,,---,0.00,VWS V14.01,2013-02-22 12:00:00,
2013-02-22 05:10:00,27.3,25.5,30.11,NNW,336,0.0,2.0,93,0.00,,---,0.00,VWS V14.01,2013-02-22 12:10:00,
2013-02-22 05:20:00,27.1,25.4,30.11,NNW,336,0.0,0.0,93,0.00,,---,0.00,VWS V14.01,2013-02-22 12:20:00,
2013-02-22 05:30:00,26.9,25.1,30.11,NNW,336,0.0,0.0,93,0.00,,---,0.00,VWS V14.01,2013-02-22 12:30:00,
2013-02-22 05:40:00,26.6,24.9,30.11,NNW,336,0.0,0.0,93,0.00,,---,0.00,VWS V14.01,2013-02-22 12:40:00,
2013-02-22 05:50:00,26.3,24.6,30.11,NNW,336,0.0,0.0,93,0.00,,---,0.00,VWS V14.01,2013-02-22 12:50:00,
2013-02-22 06:00:00,26.1,24.6,30.12,NNW,336,2.0,2.0,94,0.00,,---,0.00,VWS V14.01,2013-02-22 13:00:00,
2013-02-22 06:10:00,25.9,24.4,30.12,NNW,336,2.0,2.0,94,0.00,,---,0.00,VWS V14.01,2013-02-22 13:10:00,
2013-02-22 06:20:00,25.9,24.4,30.13,NNW,336,0.0,2.0,94,0.00,,---,0.00,VWS V14.01,2013-02-22 13:20:00,
2013-02-22 06:30:00,25.7,24.0,30.13,NNW,336,0.0,1.0,93,0.00,,---,0.00,VWS V14.01,2013-02-22 13:30:00,
2013-02-22 06:40:00,25.6,24.1,30.14,NNW,336,0.0,3.0,94,0.00,,---,0.00,VWS V14.01,2013-02-22 13:40:00,
2013-02-22 06:50:00,25.5,23.8,30.14,NNW,336,3.0,3.0,93,0.00,,---,0.00,VWS V14.01,2013-02-22 13:50:00,
2013-02-22 07:00:00,25.5,23.8,30.15,NNW,336,1.0,3.0,93,0.00,,---,0.00,VWS V14.01,2013-02-22 14:00:00,
2013-02-22 07:10:00,25.3,23.3,30.15,NNW,336,0.0,1.0,92,0.00,,---,0.00,VWS V14.01,2013-02-22 14:10:00,
2013-02-22 07:20:00,25.1,23.4,30.16,NNW,336,0.0,0.0,93,0.00,,---,0.00,VWS V14.01,2013-02-22 14:20:00,
2013-02-22 07:30:00,24.8,23.1,30.16,NNW,336,0.0,0.0,93,0.00,,---,0.00,VWS V14.01,2013-02-22 14:30:00,
2013-02-22 07:40:00,24.7,23.0,30.16,NNW,336,1.0,1.0,93,0.00,,---,0.00,VWS V14.01,2013-02-22 14:40:00,
2013-02-22 07:50:00,24.7,23.0,30.17,NNW,336,0.0,2.0,93,0.00,,---,0.00,VWS V14.01,2013-02-22 14:50:00,
2013-02-22 08:00:00,24.7,23.2,30.17,NNW,336,0.0,0.0,94,0.00,,---,0.00,VWS V14.01,2013-02-22 15:00:00,
2013-02-22 08:10:00,25.1,23.9,30.17,NNW,336,0.0,1.0,95,0.00,,---,0.00,VWS V14.01,2013-02-22 15:10:00,
2013-02-22 08:20:00,25.6,24.4,30.18,NNW,336,0.0,0.0,95,0.00,,---,0.00,VWS V14.01,2013-02-22 15:20:00,
2013-02-22 08:30:00,26.2,25.0,30.18,NNW,336,1.0,2.0,95,0.00,,---,0.00,VWS V14.01,2013-02-22 15:30:00,
2013-02-22 08:40:00,27.5,26.5,30.18,NNW,336,0.0,2.0,96,0.00,,---,0.00,VWS V14.01,2013-02-22 15:40:00,
2013-02-22 08:50:00,28.8,27.8,30.18,NNW,336,0.0,3.0,96,0.00,,---,0.00,VWS V14.01,2013-02-22 15:50:00,
2013-02-22 09:00:00,29.6,28.1,30.18,NNW,336,0.0,2.0,94,0.00,,---,0.00,VWS V14.01,2013-02-22 16:00:00,
2013-02-22 09:10:00,30.7,28.9,30.19,NNW,336,0.0,2.0,93,0.00,,---,0.00,VWS V14.01,2013-02-22 16:10:00,
2013-02-22 09:20:00,31.9,29.6,30.18,NNW,336,0.0,4.0,91,0.00,,---,0.00,VWS V14.01,2013-02-22 16:20:00,
2013-02-22 09:30:00,33.1,30.2,30.18,NNW,336,1.0,3.0,89,0.02,,---,0.02,VWS V14.01,2013-02-22 16:30:00,
2013-02-22 09:40:00,34.1,30.6,30.18,NNW,338,3.0,4.0,87,0.03,,---,0.03,VWS V14.01,2013-02-22 16:40:00,
2013-02-22 09:50:00,34.8,31.3,30.19,NNW,342,2.0,4.0,87,0.03,,---,0.03,VWS V14.01,2013-02-22 16:50:00,
2013-02-22 10:00:00,35.4,31.6,30.19,North,355,1.0,3.0,86,0.04,,---,0.04,VWS V14.01,2013-02-22 17:00:00,
2013-02-22 10:10:00,36.1,31.1,30.19,East,101,3.0,5.0,82,0.04,,---,0.04,VWS V14.01,2013-02-22 17:10:00,
2013-02-22 10:20:00,36.5,28.7,30.19,ESE,103,0.0,4.0,73,0.04,,---,0.04,VWS V14.01,2013-02-22 17:20:00,
2013-02-22 10:30:00,37.2,31.3,30.19,ESE,119,3.0,6.0,79,0.04,,---,0.04,VWS V14.01,2013-02-22 17:30:00,
2013-02-22 10:40:00,37.7,31.1,30.19,ESE,120,2.0,3.0,77,0.02,,---,0.04,VWS V14.01,2013-02-22 17:40:00,
2013-02-22 10:50:00,38.3,30.1,30.19,South,182,2.0,5.0,72,0.01,,---,0.04,VWS V14.01,2013-02-22 17:50:00,
2013-02-22 11:00:00,38.1,28.8,30.19,SW,219,2.0,5.0,69,0.02,,---,0.05,VWS V14.01,2013-02-22 18:00:00,
2013-02-22 11:10:00,38.4,30.5,30.19,SW,219,3.0,3.0,73,0.01,,---,0.05,VWS V14.01,2013-02-22 18:10:00,
2013-02-22 11:20:00,39.3,30.0,30.20,SSW,194,2.0,6.0,69,0.01,,---,0.05,VWS V14.01,2013-02-22 18:20:00,
2013-02-22 11:30:00,39.7,27.4,30.19,SSW,195,4.0,4.0,61,0.01,,---,0.05,VWS V14.01,2013-02-22 18:30:00,
2013-02-22 11:40:00,39.9,28.0,30.19,SSW,207,4.0,5.0,62,0.01,,---,0.05,VWS V14.01,2013-02-22 18:40:00,
2013-02-22 11:50:00,40.5,28.9,30.19,SW,221,5.0,6.0,63,0.01,,---,0.05,VWS V14.01,2013-02-22 18:50:00,
2013-02-22 12:00:00,41.0,28.6,30.19,SW,223,3.0,9.0,61,0.01,,---,0.05,VWS V14.01,2013-02-22 19:00:00,
2013-02-22 12:10:00,40.6,24.4,30.19,WSW,239,2.0,9.0,52,0.00,,---,0.05,VWS V14.01,2013-02-22 19:10:00,
2013-02-22 12:20:00,41.1,24.8,30.19,NW,325,2.0,10.0,52,0.00,,---,0.05,VWS V14.01,2013-02-22 19:20:00,
2013-02-22 12:30:00,40.8,25.9,30.18,North,5,0.0,6.0,55,0.00,,---,0.05,VWS V14.01,2013-02-22 19:30:00,
2013-02-22 12:40:00,41.6,24.4,30.18,NNE,29,2.0,6.0,50,0.00,,---,0.05,VWS V14.01,2013-02-22 19:40:00,
2013-02-22 12:50:00,42.8,25.9,30.18,NE,55,4.0,6.0,51,0.00,,---,0.05,VWS V14.01,2013-02-22 19:50:00,
2013-02-22 13:00:00,43.0,24.7,30.18,NNW,340,2.0,9.0,48,0.00,,---,0.05,VWS V14.01,2013-02-22 20:00:00,
2013-02-22 13:10:00,43.2,25.8,30.18,West,275,2.0,5.0,50,0.00,,---,0.05,VWS V14.01,2013-02-22 20:10:00,
2013-02-22 13:20:00,44.1,28.1,30.17,SSW,206,3.0,6.0,53,0.00,,---,0.05,VWS V14.01,2013-02-22 20:20:00,
2013-02-22 13:30:00,45.1,26.1,30.17,SSE,164,2.0,6.0,47,0.00,,---,0.05,VWS V14.01,2013-02-22 20:30:00,
2013-02-22 13:40:00,44.9,25.9,30.17,ENE,69,2.0,7.0,47,0.00,,---,0.05,VWS V14.01,2013-02-22 20:40:00,
2013-02-22 13:50:00,45.0,28.5,30.16,ENE,67,1.0,6.0,52,0.00,,---,0.05,VWS V14.01,2013-02-22 20:50:00,
2013-02-22 14:00:00,46.0,27.9,30.15,ENE,61,2.0,4.0,49,0.00,,---,0.05,VWS V14.01,2013-02-22 21:00:00,
2013-02-22 14:10:00,47.5,28.3,30.15,NNW,346,5.0,6.0,47,0.00,,---,0.05,VWS V14.01,2013-02-22 21:10:00,
2013-02-22 14:20:00,48.3,29.0,30.15,WSW,257,1.0,7.0,47,0.00,,---,0.05,VWS V14.01,2013-02-22 21:20:00,
2013-02-22 14:30:00,48.8,27.9,30.14,SE,142,6.0,8.0,44,0.00,,---,0.05,VWS V14.01,2013-02-22 21:30:00,
2013-02-22 14:40:00,49.2,25.3,30.13,WNW,290,3.0,9.0,39,0.00,,---,0.05,VWS V14.01,2013-02-22 21:40:00,
2013-02-22 14:50:00,49.5,27.4,30.13,SSW,207,3.0,7.0,42,0.00,,---,0.05,VWS V14.01,2013-02-22 21:50:00,
2013-02-22 15:00:00,50.0,22.8,30.13,West,278,3.0,10.0,34,0.00,,---,0.05,VWS V14.01,2013-02-22 22:00:00,
2013-02-22 15:10:00,50.4,21.7,30.13,WNW,282,1.0,8.0,32,0.00,,---,0.05,VWS V14.01,2013-02-22 22:10:00,
2013-02-22 15:20:00,51.1,24.4,30.12,West,281,5.0,6.0,35,0.00,,---,0.05,VWS V14.01,2013-02-22 22:20:00,
2013-02-22 15:30:00,51.2,21.6,30.12,SSW,213,2.0,7.0,31,0.00,,---,0.05,VWS V14.01,2013-02-22 22:30:00,
2013-02-22 15:40:00,50.9,22.8,30.12,SSW,213,4.0,4.0,33,0.00,,---,0.05,VWS V14.01,2013-02-22 22:40:00,
2013-02-22 15:50:00,51.2,20.0,30.12,WSW,246,0.0,6.0,29,0.00,,---,0.05,VWS V14.01,2013-02-22 22:50:00,
2013-02-22 16:00:00,51.3,22.5,30.11,WSW,249,3.0,7.0,32,0.00,,---,0.05,VWS V14.01,2013-02-22 23:00:00,
2013-02-22 16:10:00,51.5,24.8,30.11,SSW,197,0.0,6.0,35,0.00,,---,0.05,VWS V14.01,2013-02-22 23:10:00,
2013-02-22 16:20:00,50.9,24.2,30.11,SSE,154,6.0,12.0,35,0.00,,---,0.05,VWS V14.01,2013-02-22 23:20:00,
2013-02-22 16:30:00,50.2,25.0,30.11,SSE,167,1.0,9.0,37,0.00,,---,0.05,VWS V14.01,2013-02-22 23:30:00,
2013-02-22 16:40:00,49.6,23.1,30.11,SSE,167,5.0,7.0,35,0.00,,---,0.05,VWS V14.01,2013-02-22 23:40:00,
2013-02-22 16:50:00,48.7,24.9,30.11,SSE,161,4.0,8.0,39,0.00,,---,0.05,VWS V14.01,2013-02-22 23:50:00,
2013-02-22 17:00:00,47.8,23.4,30.11,SSE,159,0.0,10.0,38,0.00,,---,0.05,VWS V14.01,2013-02-23 00:00:00,
2013-02-22 17:10:00,47.4,24.3,30.11,SSE,157,3.0,5.0,40,0.00,,---,0.05,VWS V14.01,2013-02-23 00:10:00,
2013-02-22 17:20:00,47.0,22.1,30.11,SSE,156,5.0,5.0,37,0.00,,---,0.05,VWS V14.01,2013-02-23 00:20:00,
2013-02-22 17:30:00,46.5,22.9,30.12,SSE,152,2.0,6.0,39,0.00,,---,0.05,VWS V14.01,2013-02-23 00:30:00,
2013-02-22 17:40:00,45.8,26.2,30.12,SSE,152,0.0,4.0,46,0.00,,---,0.05,VWS V14.01,2013-02-23 00:40:00,
2013-02-22 17:50:00,44.7,25.7,30.13,SSE,152,0.0,0.0,47,0.00,,---,0.05,VWS V14.01,2013-02-23 00:50:00,
2013-02-22 18:00:00,43.5,26.1,30.13,SE,144,0.0,0.0,50,0.00,,---,0.05,VWS V14.01,2013-02-23 01:00:00,
2013-02-22 18:10:00,42.4,26.0,30.14,SSE,157,0.0,0.0,52,0.00,,---,0.05,VWS V14.01,2013-02-23 01:10:00,
2013-02-22 18:20:00,41.3,26.4,30.13,SSE,157,0.0,2.0,55,0.00,,---,0.05,VWS V14.01,2013-02-23 01:20:00,
2013-02-22 18:30:00,40.4,26.8,30.14,SSE,157,0.0,2.0,58,0.00,,---,0.05,VWS V14.01,2013-02-23 01:30:00,
2013-02-22 18:40:00,39.7,27.0,30.14,SSE,157,0.0,1.0,60,0.00,,---,0.05,VWS V14.01,2013-02-23 01:40:00,
2013-02-22 18:50:00,39.0,27.9,30.14,SSE,157,2.0,3.0,64,0.00,,---,0.05,VWS V14.01,2013-02-23 01:50:00,
2013-02-22 19:00:00,38.5,28.9,30.15,SSE,157,2.0,3.0,68,0.00,,---,0.05,VWS V14.01,2013-02-23 02:00:00,
2013-02-22 19:10:00,38.2,28.6,30.16,SSE,157,1.0,4.0,68,0.00,,---,0.05,VWS V14.01,2013-02-23 02:10:00,
2013-02-22 19:20:00,37.9,28.6,30.16,SSE,157,1.0,3.0,69,0.00,,---,0.05,VWS V14.01,2013-02-23 02:20:00,
2013-02-22 19:30:00,37.6,28.4,30.16,SSE,157,2.0,3.0,69,0.00,,---,0.05,VWS V14.01,2013-02-23 02:30:00,
2013-02-22 19:40:00,37.3,28.4,30.16,SSE,155,1.0,8.0,70,0.00,,---,0.05,VWS V14.01,2013-02-23 02:40:00,
2013-02-22 19:50:00,37.3,28.8,30.16,SSE,155,1.0,3.0,71,0.00,,---,0.05,VWS V14.01,2013-02-23 02:50:00,
2013-02-22 20:00:00,37.1,28.9,30.16,SSE,155,0.0,1.0,72,0.00,,---,0.05,VWS V14.01,2013-02-23 03:00:00,
2013-02-22 20:10:00,36.6,28.4,30.17,SSE,155,0.0,2.0,72,0.00,,---,0.05,VWS V14.01,2013-02-23 03:10:00,
2013-02-22 20:20:00,36.2,28.1,30.17,SSE,155,0.0,3.0,72,0.00,,---,0.05,VWS V14.01,2013-02-23 03:20:00,
2013-02-22 20:30:00,35.8,28.0,30.17,SSE,155,0.0,0.0,73,0.00,,---,0.05,VWS V14.01,2013-02-23 03:30:00,
2013-02-22 20:40:00,35.1,28.0,30.17,SSE,155,0.0,0.0,75,0.00,,---,0.05,VWS V14.01,2013-02-23 03:40:00,
2013-02-22 20:50:00,34.5,27.7,30.17,SSE,155,0.0,0.0,76,0.00,,---,0.05,VWS V14.01,2013-02-23 03:50:00,
2013-02-22 21:00:00,33.8,27.4,30.18,SSE,155,0.0,0.0,77,0.00,,---,0.05,VWS V14.01,2013-02-23 04:00:00,
2013-02-22 21:10:00,33.2,27.4,30.18,SSE,155,0.0,0.0,79,0.00,,---,0.05,VWS V14.01,2013-02-23 04:10:00,
2013-02-22 21:20:00,32.7,27.5,30.18,SSE,155,0.0,1.0,81,0.00,,---,0.05,VWS V14.01,2013-02-23 04:20:00,
2013-02-22 21:30:00,32.3,27.1,30.18,SSE,155,0.0,0.0,81,0.00,,---,0.05,VWS V14.01,2013-02-23 04:30:00,
2013-02-22 21:40:00,32.0,27.1,30.18,SSE,155,0.0,0.0,82,0.00,,---,0.05,VWS V14.01,2013-02-23 04:40:00,
2013-02-22 21:50:00,31.7,27.1,30.19,SSE,155,0.0,1.0,83,0.00,,---,0.05,VWS V14.01,2013-02-23 04:50:00,
2013-02-22 22:00:00,31.4,26.8,30.19,SSE,155,0.0,0.0,83,0.00,,---,0.05,VWS V14.01,2013-02-23 05:00:00,
2013-02-22 22:10:00,31.2,26.9,30.19,SSE,155,0.0,0.0,84,0.00,,---,0.05,VWS V14.01,2013-02-23 05:10:00,
2013-02-22 22:20:00,30.9,26.6,30.18,SSE,155,0.0,0.0,84,0.00,,---,0.05,VWS V14.01,2013-02-23 05:20:00,
2013-02-22 22:30:00,30.6,26.6,30.19,SSE,155,0.0,3.0,85,0.00,,---,0.05,VWS V14.01,2013-02-23 05:30:00,
2013-02-22 22:40:00,30.4,26.4,30.19,SSE,155,0.0,0.0,85,0.00,,---,0.05,VWS V14.01,2013-02-23 05:40:00,
2013-02-22 22:50:00,30.2,26.2,30.19,SSE,155,0.0,0.0,85,0.00,,---,0.05,VWS V14.01,2013-02-23 05:50:00,
2013-02-22 23:00:00,30.0,26.3,30.19,SSE,155,0.0,0.0,86,0.00,,---,0.05,VWS V14.01,2013-02-23 06:00:00,
2013-02-22 23:10:00,30.0,26.0,30.20,SSE,155,1.0,2.0,85,0.00,,---,0.05,VWS V14.01,2013-02-23 06:10:00,
2013-02-22 23:20:00,29.9,26.0,30.20,SSE,155,0.0,1.0,85,0.00,,---,0.05,VWS V14.01,2013-02-23 06:20:00,
2013-02-22 23:30:00,29.9,26.0,30.20,SSE,155,0.0,2.0,85,0.00,,---,0.05,VWS V14.01,2013-02-23 06:30:00,
2013-02-22 23:40:00,29.9,26.0,30.20,SSE,155,0.0,2.0,85,0.00,,---,0.05,VWS V14.01,2013-02-23 06:40:00,
2013-02-22 23:50:00,29.9,25.7,30.20,SSE,155,0.0,1.0,84,0.00,,---,0.05,VWS V14.01,2013-02-23 06:50:00,